TimeEDT,TemperatureF,Dew PointF,Humidity,Sea Level PressureIn,VisibilityMPH,Wind Direction,Wind SpeedMPH,Gust SpeedMPH,PrecipitationIn,Events,Conditions,WindDirDegrees,DateUTC
12:15 AM,46.6,42.3,85,30.13,10.0,Calm,Calm,-,N/A,,Clear,0,2012-10-22 04:15:00
12:35 AM,46.4,42.3,85,30.13,10.0,Calm,Calm,-,N/A,,Clear,0,2012-10-22 04:35:00
12:55 AM,46.6,42.3,85,30.13,10.0,Calm,Calm,-,N/A,,Clear,0,2012-10-22 04:55:00
1:15 AM,46.6,42.4,85,30.13,10.0,Calm,Calm,-,N/A,,Clear,0,2012-10-22 05:15:00
1:55 AM,44.1,41.4,90,30.13,10.0,Calm,Calm,-,N/A,,Clear,0,2012-10-22 05:55:00
2:15 AM,46.0,42.3,87,30.13,10.0,Calm,Calm,-,N/A,,Clear,0,2012-10-22 06:15:00
2:35 AM,44.6,42.1,91,30.12,10.0,Calm,Calm,-,N/A,,Clear,0,2012-10-22 06:35:00
2:55 AM,45.0,42.3,90,30.12,10.0,Calm,Calm,-,N/A,,Clear,0,2012-10-22 06:55:00
3:15 AM,45.1,41.9,88,30.12,10.0,Calm,Calm,-,N/A,,Clear,0,2012-10-22 07:15:00
3:35 AM,44.8,41.5,88,30.13,10.0,Calm,Calm,-,N/A,,Clear,0,2012-10-22 07:35:00
3:55 AM,45.0,41.5,88,30.13,10.0,Calm,Calm,-,N/A,,Clear,0,2012-10-22 07:55:00
4:15 AM,44.6,41.7,90,30.13,10.0,Calm,Calm,-,N/A,,Clear,0,2012-10-22 08:15:00
4:55 AM,41.9,40.3,94,30.13,10.0,ESE,3.5,-,N/A,,Clear,120,2012-10-22 08:55:00
5:15 AM,41.9,40.6,95,30.13,7.0,Calm,Calm,-,N/A,,Clear,0,2012-10-22 09:15:00
5:35 AM,42.8,41.4,95,30.13,7.0,Calm,Calm,-,N/A,,Clear,0,2012-10-22 09:35:00
5:55 AM,42.8,41.9,97,30.13,7.0,Calm,Calm,-,N/A,,Scattered Clouds,0,2012-10-22 09:55:00
6:15 AM,44.1,42.8,95,30.14,7.0,SE,3.5,-,N/A,,Overcast,130,2012-10-22 10:15:00
6:35 AM,45.5,43.7,93,30.14,10.0,Calm,Calm,-,N/A,,Overcast,0,2012-10-22 10:35:00
6:55 AM,44.8,43.0,93,30.14,10.0,ESE,3.5,-,N/A,,Mostly Cloudy,120,2012-10-22 10:55:00
7:15 AM,44.4,42.4,93,30.14,10.0,ESE,3.5,-,N/A,,Clear,120,2012-10-22 11:15:00
7:20 AM,44.6,42.8,93,30.15,10.0,ESE,3.5,-,N/A,,Scattered Clouds,120,2012-10-22 11:20:00
7:35 AM,44.1,42.3,93,30.15,10.0,Calm,Calm,-,N/A,,Scattered Clouds,0,2012-10-22 11:35:00
7:50 AM,42.8,42.8,100,30.15,10.0,SE,3.5,-,N/A,,Scattered Clouds,130,2012-10-22 11:50:00
7:55 AM,43.9,41.9,93,30.15,10.0,Calm,Calm,-,N/A,,Clear,0,2012-10-22 11:55:00
8:15 AM,44.1,41.9,92,30.15,10.0,Calm,Calm,-,N/A,,Clear,0,2012-10-22 12:15:00
8:50 AM,48.2,44.6,87,30.16,10.0,Calm,Calm,-,N/A,,Scattered Clouds,0,2012-10-22 12:50:00
9:47 AM,53.6,46.4,77,30.16,10.0,SSE,5.8,-,N/A,,Clear,150,2012-10-22 13:47:00
10:50 AM,60.8,48.2,63,30.16,10.0,South,4.6,-,N/A,,Scattered Clouds,180,2012-10-22 14:50:00
11:50 AM,62.6,50.0,63,30.14,10.0,South,5.8,-,N/A,,Overcast,170,2012-10-22 15:50:00
12:50 PM,68.0,51.8,56,30.13,10.0,South,4.6,-,N/A,,Clear,180,2012-10-22 16:50:00
1:53 PM,73.4,53.6,50,30.10,10.0,South,5.8,-,N/A,,Clear,190,2012-10-22 17:53:00
2:50 PM,75.2,51.8,44,30.09,10.0,SW,12.7,-,N/A,,Clear,220,2012-10-22 18:50:00
3:50 PM,77.0,51.8,41,30.08,10.0,SSW,11.5,-,N/A,,Clear,210,2012-10-22 19:50:00
5:50 PM,75.2,53.6,47,30.08,10.0,SSW,9.2,-,N/A,,Overcast,200,2012-10-22 21:50:00
6:50 PM,71.6,53.6,53,30.08,10.0,SSW,8.1,-,N/A,,Mostly Cloudy,210,2012-10-22 22:50:00
9:15 PM,66.9,52.2,59,30.06,10.0,South,6.9,-,N/A,,Clear,190,2012-10-23 01:15:00
9:55 PM,64.6,52.0,64,30.07,10.0,South,4.6,-,N/A,,Clear,190,2012-10-23 01:55:00
10:15 PM,64.8,52.5,64,30.06,10.0,South,5.8,-,N/A,,Scattered Clouds,170,2012-10-23 02:15:00
10:35 PM,64.0,52.7,67,30.06,10.0,SSE,4.6,-,N/A,,Mostly Cloudy,160,2012-10-23 02:35:00
10:55 PM,63.7,52.7,67,30.06,10.0,South,4.6,-,N/A,,Mostly Cloudy,190,2012-10-23 02:55:00
11:15 PM,64.4,52.7,66,30.06,10.0,South,5.8,-,N/A,,Scattered Clouds,170,2012-10-23 03:15:00
11:35 PM,65.3,52.7,64,30.06,10.0,South,6.9,-,N/A,,Mostly Cloudy,180,2012-10-23 03:35:00
11:55 PM,64.8,52.9,65,30.06,10.0,SSW,6.9,-,N/A,,Overcast,200,2012-10-23 03:55:00